User: anonymous   Login
Location: Fornova de Taro
(44.7000°N, 10.1000°E)
Time: 07:57:55
(UTC+00:00)
Language:

Cosmos 2369 Rocket - Orbit

View from above orbital plane
View from above orbital plane
View from above satellite
View from above satellite

Ground track
Ground track

The orbit data is extracted from the following two-line orbital elements,

1 26070U 00006B   22222.44944933 -.00000034  00000-0  71657-5 0  9990
2 26070  71.0043 325.7433 0016422   3.4504 356.6729 14.15496871163554
Epoch (UTC): 10 August 2022 10:47:12
Eccentricity: 0.0016422
inclination: 71.0043°
perigee height: 829 km
apogee height: 852 km
right ascension of ascending node: 325.7433°
argument of perigee: 3.4504°
revolutions per day: 14.15496871
mean anomaly at epoch: 356.6729°
orbit number at epoch: 16355

The dashed part of the orbit path shows where the satellite is in the earth's shadow,  

DLR